Total_Precipitation_Accumulation
2.89 3.19 3.05 3.07 2.78 2.89 3.23 3.55 3.56 3.74 4.03 3.98 3.50 3.24 3.34 3.35 3.09 2.90 3.08 3.32 3.38 3.33 3.63 3.85 3.55 3.33 3.24 2.89 2.62 2.51 2.38 2.29 2.11 1.87 1.71 1.57 1.41 1.19 1.00 0.93 0.79 0.72 0.67
3.16 3.44 3.30 3.16 2.81 2.80 3.13 3.46 3.50 3.81 3.95 4.07 3.57 3.22 3.21 3.22 2.95 2.68 2.73 3.24 3.32 3.19 3.34 3.76 3.91 3.76 3.57 3.28 2.98 2.73 2.50 2.32 2.24 2.03 1.77 1.59 1.47 1.33 1.24 1.07 0.92 0.86 0.77
3.38 3.68 3.60 3.18 2.90 2.96 3.15 3.13 3.29 3.79 3.74 3.69 3.57 3.43 3.33 3.18 2.88 2.80 2.74 2.92 2.81 2.92 3.18 3.36 3.65 3.91 3.97 3.87 3.67 3.30 2.98 2.57 2.29 2.06 1.77 1.55 1.44 1.29 1.23 1.17 1.08 1.03 0.92
2.97 3.35 3.13 2.72 2.78 2.97 3.15 3.18 3.15 3.53 3.72 3.76 3.82 3.62 3.43 3.23 2.86 2.75 2.73 2.71 2.68 2.41 2.70 3.04 3.42 3.74 4.16 4.44 4.53 4.38 3.95 3.23 2.63 2.25 1.89 1.68 1.53 1.32 1.15 1.13 1.16 1.14 1.01
2.09 2.47 2.46 2.41 2.44 2.71 2.77 2.45 2.70 3.03 3.28 3.47 3.23 3.13 2.80 2.61 2.52 2.35 2.30 2.21 2.41 2.54 2.68 2.72 3.08 3.37 4.02 4.89 5.43 5.38 4.90 4.04 3.21 2.70 2.37 2.11 1.91 1.61 1.31 1.17 1.17 1.14 1.04
1.90 2.16 2.24 2.10 2.05 2.27 2.38 2.52 2.84 2.92 2.82 2.91 2.56 2.57 2.53 2.29 2.27 2.22 2.04 2.03 2.15 2.12 2.39 2.66 2.95 2.77 3.32 4.25 5.02 5.29 5.17 4.73 3.90 3.21 2.87 2.71 2.58 2.18 1.68 1.43 1.35 1.25 1.15
2.06 2.36 2.18 2.23 2.06 2.11 2.18 2.25 2.51 2.62 2.42 2.60 2.99 2.81 2.48 2.19 2.16 2.06 1.97 2.05 2.05 2.16 2.38 2.73 2.95 3.03 2.93 2.98 3.43 4.20 4.84 5.11 4.87 4.16 3.51 3.10 2.97 2.58 2.02 1.79 1.59 1.46 1.44
2.03 1.97 2.16 2.01 1.94 2.19 2.16 2.24 2.47 2.46 2.22 2.39 2.87 3.10 2.85 2.76 2.25 1.67 1.86 1.96 2.01 2.28 2.35 2.34 2.57 3.05 3.07 3.25 2.64 3.00 4.14 4.87 5.35 5.32 4.61 3.80 3.38 2.92 2.41 2.20 1.96 1.76 1.69
1.70 1.79 1.83 1.79 1.90 1.82 2.02 2.19 2.31 2.53 2.51 2.28 2.29 2.77 2.79 2.73 2.47 1.93 1.64 1.74 2.02 2.31 2.30 2.31 2.33 2.64 2.94 3.32 3.17 2.69 2.98 3.58 4.62 5.57 5.61 4.72 3.70 3.01 2.71 2.62 2.52 2.28 2.05
1.69 1.71 1.70 1.83 1.87 1.74 2.03 1.79 1.97 2.35 2.55 2.33 2.32 2.25 2.30 2.49 2.56 2.38 2.03 1.73 1.88 2.00 2.14 2.10 2.20 2.51 2.79 3.04 3.10 2.52 2.18 2.47 3.40 4.63 5.45 5.40 4.60 3.63 3.11 3.12 3.30 3.13 2.76
1.72 1.53 1.66 1.88 1.94 1.81 1.86 1.91 2.16 2.18 2.24 2.24 2.21 2.17 2.32 2.39 2.22 2.28 2.28 2.07 1.91 1.60 1.74 2.01 2.22 2.38 2.56 2.83 3.10 2.74 2.54 2.37 2.47 3.01 3.72 4.42 4.77 4.41 3.95 3.88 4.19 4.37 4.15
1.71 1.59 1.72 2.00 1.99 1.97 1.93 1.93 1.98 2.01 2.19 2.31 2.25 2.11 2.22 2.34 2.33 2.45 2.23 2.12 2.13 1.83 1.93 2.21 2.29 2.37 2.36 2.53 2.55 2.53 2.45 2.39 2.33 2.32 2.55 2.99 3.63 4.08 4.19 4.36 4.76 5.11 5.21
1.56 1.66 1.74 1.94 1.93 1.95 1.86 2.06 2.10 2.02 2.16 2.21 2.17 2.15 2.08 2.03 2.16 2.35 2.37 2.19 2.16 2.05 2.26 2.23 2.24 2.28 2.24 2.49 2.62 2.57 2.21 2.22 2.08 1.98 2.05 2.25 2.58 3.13 3.66 4.01 4.46 4.95 5.30
1.32 1.42 1.56 1.61 1.69 1.72 1.70 2.14 2.02 2.06 2.17 2.06 1.95 2.31 2.19 1.91 2.08 2.22 2.44 2.70 2.54 2.37 2.44 2.34 2.30 2.28 2.46 2.60 2.67 2.58 2.20 2.24 2.05 1.86 1.73 1.70 1.79 2.04 2.46 2.82 3.18 3.56 4.00
1.39 1.43 1.51 1.73 1.87 1.92 1.97 2.22 2.13 2.10 2.27 2.08 2.05 2.24 2.17 2.08 2.06 2.04 2.41 2.79 2.97 2.74 2.58 2.47 2.23 2.13 2.27 2.40 2.46 2.10 1.92 2.07 1.98 1.82 1.67 1.57 1.54 1.62 1.78 1.93 2.02 2.12 2.30
1.55 1.67 1.75 1.90 2.02 1.99 2.00 2.19 2.13 2.21 2.32 2.21 2.19 2.23 2.16 2.11 2.20 2.13 2.28 2.57 2.82 2.99 2.77 2.29 2.15 2.07 2.09 1.92 2.00 1.76 1.78 1.98 1.83 1.67 1.60 1.56 1.54 1.53 1.52 1.55 1.59 1.62 1.67
1.68 1.76 1.86 1.99 2.02 2.09 2.20 2.29 2.10 2.19 2.31 2.47 2.36 2.33 2.37 2.48 2.44 2.34 2.44 2.54 2.71 2.97 2.88 2.38 2.28 2.29 2.15 1.93 1.87 1.77 1.72 1.80 1.81 1.90 1.73 1.61 1.50 1.41 1.38 1.37 1.39 1.45 1.50
1.99 1.94 2.01 2.06 1.94 1.98 2.20 2.27 2.24 2.26 2.29 2.32 2.50 2.73 2.64 2.69 2.64 2.48 2.59 2.55 2.62 2.92 2.81 2.55 2.55 2.56 2.49 2.25 2.10 1.91 1.70 1.69 1.81 2.02 1.77 1.62 1.53 1.46 1.43 1.40 1.36 1.34 1.35
2.21 2.29 2.29 2.13 2.05 2.04 2.11 2.21 2.32 2.32 2.32 2.38 2.53 2.61 2.65 2.85 2.73 2.61 2.53 2.50 2.59 2.76 2.88 2.66 2.58 2.76 2.63 2.36 2.22 1.96 1.74 1.83 1.62 1.74 1.71 1.64 1.61 1.54 1.49 1.41 1.37 1.34 1.30
2.22 2.38 2.34 2.28 2.23 2.12 2.00 1.96 2.02 2.11 2.27 2.43 2.47 2.39 2.49 2.74 2.79 2.76 2.55 2.52 2.67 2.78 2.82 2.73 2.62 2.74 2.75 2.66 2.51 2.28 2.16 1.98 1.78 1.66 1.71 1.63 1.61 1.54 1.46 1.34 1.30 1.30 1.31
2.19 2.34 2.39 2.41 2.39 2.21 1.95 1.99 2.12 2.11 2.27 2.29 2.23 2.13 2.14 2.40 2.61 2.67 2.40 2.41 2.56 2.58 2.59 2.61 2.59 2.67 2.73 2.87 2.73 2.46 2.23 2.07 1.83 1.66 1.66 1.52 1.49 1.40 1.42 1.40 1.33 1.24 1.17
2.59 2.62 2.53 2.46 2.38 2.01 2.12 2.18 2.17 2.15 2.25 2.26 2.22 2.13 2.02 2.01 2.02 2.16 2.26 2.37 2.52 2.50 2.50 2.65 2.80 2.87 2.87 2.91 2.91 2.70 2.41 2.15 1.93 1.71 1.79 1.75 1.67 1.60 1.45 1.32 1.35 1.26 1.19
2.98 2.98 2.84 2.64 2.47 2.38 2.30 2.08 2.05 1.91 1.94 2.00 2.08 2.07 1.81 1.64 1.76 1.70 1.90 2.07 2.19 2.27 2.31 2.49 2.63 2.72 2.86 3.00 3.06 2.80 2.60 2.36 2.08 1.89 1.90 1.73 1.62 1.61 1.50 1.45 1.54 1.37 1.29
2.92 2.94 2.84 2.68 2.54 2.43 2.30 1.99 1.94 1.75 1.76 1.78 1.82 1.84 1.81 1.70 1.70 1.82 1.83 1.76 1.72 1.81 1.99 2.00 2.09 2.35 2.60 2.81 2.96 2.85 2.76 2.43 2.10 1.87 1.82 1.67 1.53 1.51 1.45 1.48 1.58 1.48 1.36
2.67 2.55 2.46 2.43 2.39 2.41 2.37 2.05 1.88 1.67 1.75 1.73 1.72 1.73 1.75 1.67 1.83 1.78 1.73 1.74 1.73 1.75 1.83 1.91 1.89 2.03 2.28 2.45 2.59 2.67 2.63 2.46 2.16 1.92 1.87 1.83 1.63 1.57 1.51 1.37 1.36 1.45 1.36
2.58 2.48 2.33 2.30 2.28 2.25 2.30 1.94 1.76 1.59 1.68 1.70 1.76 1.75 1.74 1.64 1.67 1.59 1.53 1.64 1.64 1.67 1.77 1.79 1.77 1.75 1.83 2.15 2.51 2.37 2.40 2.45 2.19 1.86 1.63 1.73 1.70 1.73 1.60 1.25 1.12 1.14 1.16